User: anonymous   Login
Location: Unspecified
(0.0000°N, 0.0000°E)
Time: 03:47:32
(UTC+00:00)
Language:

COMPASS 1 - Orbit

View from above orbital plane
View from above orbital plane
View from above satellite
View from above satellite

Ground track
Ground track

The orbit data is extracted from the following two-line orbital elements,

1 32787U 08021E   24206.40915538  .00024433  00000-0  13586-2 0  9998
2 32787  97.6232 182.8064 0011824  81.1264 279.1305 15.13611251883366
Epoch (UTC): 24 July 2024 09:49:11
Eccentricity: 0.0011824
inclination: 97.6232°
perigee height: 517 km
apogee height: 533 km
right ascension of ascending node: 182.8064°
argument of perigee: 81.1264°
revolutions per day: 15.13611251
mean anomaly at epoch: 279.1305°
orbit number at epoch: 88336

The dashed part of the orbit path shows where the satellite is in the earth's shadow,  

DLR